Home > Weather > Corner Brook > Past weeks

Flag for Canada Weather for the Past 2 Weeks in Corner Brook, Newfoundland and Labrador, Canada

Now
32 °F

Snow flurries. Mostly cloudy.


Feels Like: 25 °F
Forecast: 27 / 33 °F
Wind: 8 mph from West

Location: Deer Lake

Current Time: Apr 29, 2016 at 4:01:55 AM

Latest Report: Apr 29, 2016 at 3:30 AM


Visibility: 10 mi

Pressure: 29.81 "Hg

Humidity: 75%

Dew Point: 25 °F

Location of Corner BrookLocation

Historic Weather in Corner Brook — Graph

°F

Corner Brook Temperature Yesterday

Maximum temperature yesterday: 43 °F (at 1:30 PM)
Minimum temperature yesterday: 21 °F (at 3:30 AM)
Average temperature yesterday: 32 °F

High & Low Weather Summary for the Past Weeks

 TemperatureHumidityPressure
High54 °F (Apr 23, 4:30 PM)100% (Apr 14, 1:30 AM)30.55 "Hg (Apr 14, 1:30 AM)
Low16 °F (Apr 19, 6:30 AM)29% (Apr 19, 4:30 PM)29.46 "Hg (Apr 21, 8:30 AM)
Average35 °F76%29.96 "Hg
* Reported Apr 14 1:30 AM — Apr 29 1:30 AM, Corner Brook, Weather by CustomWeather, © 2016

Note: Actual official high and low records may vary slightly from our data, if they occured in-between our weather recording intervals... More about our weather records

Advertising

Corner Brook Weather History for the Previous 24 Hours

Scroll right to see more
 ConditionsComfort  
Time TempWeatherWind HumidityBarometerVisibility
1:30 AM
Fri, Apr 29
32 °FOvercast.7 mph75%29.79 "Hg15 mi
12:30 AM32 °FSnow flurries. Mostly cloudy.6 mph75%29.78 "Hg12 mi
11:30 PM
Thu, Apr 28
32 °FSnow flurries. Overcast.5 mph87%29.76 "Hg10 mi
10:30 PM32 °FMostly cloudy.3 mph80%29.73 "Hg15 mi
9:30 PM36 °FPassing clouds.2 mph70%29.71 "Hg15 mi
8:30 PM36 °FBroken clouds.5 mph70%29.68 "Hg15 mi
7:30 PM37 °FBroken clouds.9 mph65%29.66 "Hg12 mi
6:30 PM37 °FScattered showers. Overcast.13 mph70%29.65 "Hg8 mi
5:30 PM39 °FSnow flurries. More clouds than sun.7 mph70%29.65 "Hg10 mi
4:30 PM39 °FSnow flurries. Overcast.9 mph65%29.65 "Hg8 mi
4:17 PM39 °FSnow flurries. Overcast.7 mph65%29.65 "Hg8 mi
3:30 PM41 °FOvercast.5 mph49%29.65 "Hg15 mi
2:30 PM41 °FOvercast.3 mph42%29.66 "Hg15 mi
1:30 PM43 °FOvercast.12 mph36%29.67 "Hg15 mi
12:30 PM41 °FPartly sunny.13 mph53%29.70 "Hg15 mi
11:30 AM37 °FPartly sunny.8 mph60%29.74 "Hg15 mi
10:30 AM32 °FPartly sunny.7 mph75%29.77 "Hg15 mi
9:30 AM28 °FBroken clouds.2 mph80%29.80 "Hg15 mi
8:30 AM27 °FPartly sunny.2 mph80%29.80 "Hg15 mi
7:30 AM25 °FPartly sunny.3 mph86%29.82 "Hg15 mi
6:30 AM23 °FPartly cloudy.7 mph93%29.82 "Hg15 mi
5:30 AM23 °FPartly cloudy.2 mph93%29.85 "Hg15 mi
4:30 AM23 °FPassing clouds.2 mph93%29.85 "Hg15 mi
Weather by CustomWeather, © 2016

See weather overviewHow to use our weather pages